Location: Sungai Bunut
(2.6333°N, 113.7333°E)
Time: 02:50:20
(UTC+00:00)

S-56A Canister/Altair - Pass Details

Date: 07 December 2023
Orbit: 640 x 2488 km, 38.9° (Epoch: 24 February)

Event Time Altitude Azimuth Distance (km) Brightness Sun altitude
Rises 00:15:24 0° 235° (SW) 5,140 11.5 26.2°
Reaches altitude 10° 00:19:19 10° 238° (WSW) 3,849 10.9 27.0°
Maximum altitude 00:28:33 60° 316° (NW) 1,315 8.8 29.1°
Drops below altitude 10° 00:34:38 10° 36° (NE) 2,577 10.4 30.4°
Sets 00:36:48 0° 40° (NE) 3,354 11.0 30.9°
